This is the latest recevied weather packets stored in our database for station/object S59MA-6. If no packets are shown the sender has not sent any weather packets the latest 1 day(s).
| Time | Temp. | Humidity | Pressure | Rain* | Wind** | Luminosity | Snow |
|---|---|---|---|---|---|---|---|
| 1778014238 | 13.89° C | 83% | 1001.9 hPa | 0 mm | - | - | - |
| 1778013938 | 13.89° C | 83% | 1001.9 hPa | 0 mm | - | - | - |
| 1778013643 | 13.89° C | 83% | 1001.8 hPa | 0 mm | - | - | - |
| 1778013338 | 13.89° C | 83% | 1001.9 hPa | 0 mm | - | - | - |
| 1778013038 | 13.89° C | 84% | 1002 hPa | 0 mm | - | - | - |
| 1778012738 | 13.33° C | 84% | 1001.9 hPa | 0 mm | - | - | - |
| 1778010042 | 13.33° C | 82% | 1001.6 hPa | 0 mm | - | - | - |
| 1778009742 | 13.33° C | 82% | 1001.8 hPa | 0 mm | - | - | - |
| 1778008842 | 12.78° C | 81% | 1001.7 hPa | 135.89 mm | - | - | - |
| 1778001940 | 13.33° C | 78% | 1000.5 hPa | 253.75 mm | - | - | - |
| 1778001040 | 13.89° C | 78% | 1001.7 hPa | 253.75 mm | - | - | - |
| 1778000440 | 13.89° C | 78% | 1001.7 hPa | 253.75 mm | - | - | - |
| 1778000140 | 13.89° C | 78% | 1001.6 hPa | 8.13 mm | - | - | - |
| 1777999541 | 13.89° C | 77% | 1001.7 hPa | 8.13 mm | - | - | - |
| 1777998940 | 14.44° C | 77% | 1001.2 hPa | 253.75 mm | - | - | - |
| 1777998340 | 14.44° C | 77% | 1001.8 hPa | 253.75 mm | - | - | - |
| 1777998040 | 14.44° C | 77% | 1001.8 hPa | 253.75 mm | - | - | - |
| 1777997739 | 14.44° C | 77% | 1001.7 hPa | 253.75 mm | - | - | - |
| 1777997440 | 14.44° C | 77% | 1000.7 hPa | 253.75 mm | - | - | - |
| 1777996840 | 14.44° C | 76% | 1000.7 hPa | 0 mm | - | - | - |
| 1777996540 | 14.44° C | 75% | 1001.9 hPa | 0 mm | - | - | - |
* Rain latest hour (hover to see other rain measurements)
** Current wind speed in m/s (hover to see current wind gust speed)